Holyoke AP, Holyoke, CO, CO

2:10 AM MDT on April 25, 2017 (GMT -0600)
Holyoke Municipal

Weather History for KHEQ - February, 2014

Change the Weather History Date:

Wednesday, February 26, 2014

  Actual Average Record
Temperature  
Mean Temperature 15 °F -  
Max Temperature 37 °F 49 °F 42 °F (2017)
Min Temperature -7 °F 23 °F -7 °F (2014)
Degree Days  
Heating Degree Days 50    
Moisture  
Dew Point 7 °F    
Average Humidity 71    
Maximum Humidity 86    
Minimum Humidity 41    
Precipitation  
Precipitation 0.00 in - - ()
Sea Level Pressure  
Sea Level Pressure 30.06 in    
Wind  
Wind Speed 8 mph (West)    
Max Wind Speed 14 mph    
Max Gust Speed 21 mph    
Visibility 10 miles    
Events Snow    
Averages and records for this station are not official NWS values.
T = Trace of Precipitation, MM = Missing Value Source: NWS Daily Summary

Daily Weather History Graph

Daily Weather History Graph

Search for Another Location

Airport or City:

Trip Planner

Search our weather history database for the weather conditions in past years. The results will help you decide how hot, cold, wet, or windy it might be!

Date:

Astronomy

Feb. 26, 2014 Rise Set
Actual Time 6:27 AM MST 5:37 PM MST
Civil Twilight 5:59 AM MST 6:04 PM MST
Nautical Twilight 5:28 AM MST 6:36 PM MST
Astronomical Twilight 4:56 AM MST 7:08 PM MST
Moon 4:15 AM MST (2/26) 2:53 PM MST (2/26)
Length of Visible Light 12h 04m
Length of Day
11h 09m
Waning Crescent, 9% of the Moon is Illuminated
Feb 26
Waning Crescent
Mar 1
New
Mar 8
First Quarter
Mar 16
Full
Mar 23
Last Quarter

Hourly Weather History & Observations

Time (MST) Temp. Windchill Dew Point Humidity Pressure Visibility Wind Dir Wind Speed Gust Speed Precip Events Conditions
12:15 AM 10.4 °F 2.2 °F 5.0 °F 79% 30.31 in 10.0 mi WSW 4.6 mph - N/A Snow Light Snow
12:35 AM 12.2 °F 0.7 °F 8.6 °F 85% 30.30 in 10.0 mi WSW 8.1 mph - N/A Snow Light Snow
12:55 AM 6.8 °F -4.8 °F 3.2 °F 85% 30.28 in 10.0 mi WSW 6.9 mph - N/A   Scattered Clouds
1:15 AM 3.2 °F -7.8 °F -0.4 °F 85% 30.25 in 10.0 mi WSW 5.8 mph - N/A   Clear
1:35 AM -0.4 °F -16.7 °F -5.8 °F 78% 30.24 in 10.0 mi WSW 10.4 mph - N/A   Clear
1:55 AM -0.4 °F -17.6 °F -5.8 °F 78% 30.23 in 10.0 mi WSW 11.5 mph - N/A   Clear
2:15 AM -0.4 °F -16.7 °F -5.8 °F 78% 30.21 in 10.0 mi WSW 10.4 mph - N/A   Clear
2:35 AM -0.4 °F -14.7 °F -5.8 °F 78% 30.19 in 10.0 mi West 8.1 mph - N/A   Clear
2:55 AM -0.4 °F -16.7 °F -5.8 °F 78% 30.18 in 10.0 mi WSW 10.4 mph - N/A   Clear
3:15 AM -4.0 °F -20.2 °F -9.4 °F 78% 30.16 in 10.0 mi WSW 9.2 mph - N/A   Clear
3:35 AM -0.4 °F -14.7 °F -5.8 °F 78% 30.15 in 10.0 mi West 8.1 mph - N/A   Clear
3:55 AM -4.0 °F -16.3 °F -9.4 °F 78% 30.14 in 10.0 mi WSW 5.8 mph - N/A   Clear
4:15 AM -5.8 °F -18.4 °F -11.2 °F 77% 30.12 in 4.0 mi WSW 5.8 mph - N/A Snow Light Snow
4:35 AM -5.8 °F -21.2 °F -11.2 °F 77% 30.11 in 10.0 mi WSW 8.1 mph - N/A   Clear
4:55 AM -4.0 °F -16.3 °F -9.4 °F 78% 30.10 in 10.0 mi West 5.8 mph - N/A   Clear
5:15 AM -5.8 °F -16.7 °F -11.2 °F 77% 30.11 in 10.0 mi WSW 4.6 mph - N/A   Clear
5:35 AM -5.8 °F - -11.2 °F 77% 30.12 in 0.8 mi Calm Calm - N/A Snow Snow
5:55 AM -5.8 °F -14.5 °F -13.0 °F 71% 30.11 in 10.0 mi West 3.5 mph - N/A   Clear
6:15 AM -5.8 °F -16.7 °F -13.0 °F 71% 30.10 in 10.0 mi WSW 4.6 mph - N/A   Clear
6:35 AM -7.6 °F -20.6 °F -14.8 °F 71% 30.09 in 10.0 mi West 5.8 mph - N/A   Clear
6:45 AM -5.8 °F -16.7 °F -13.0 °F 71% 30.10 in 10.0 mi West 4.6 mph - N/A   Clear
7:15 AM -5.8 °F -16.7 °F -11.2 °F 77% 30.10 in 7.0 mi West 4.6 mph - N/A   Clear
7:35 AM -5.8 °F -18.4 °F -9.4 °F 84% 30.10 in 10.0 mi West 5.8 mph - N/A   Clear
7:55 AM -0.4 °F -12.0 °F -5.8 °F 78% 30.10 in 10.0 mi West 5.8 mph - N/A   Clear
8:15 AM 5.0 °F -4.1 °F -0.4 °F 78% 30.10 in 10.0 mi West 4.6 mph - N/A   Clear
8:35 AM 6.8 °F -2.0 °F 3.2 °F 85% 30.09 in 10.0 mi West 4.6 mph - N/A   Clear
8:55 AM 12.2 °F -1.0 °F 8.6 °F 85% 30.09 in 10.0 mi West 10.4 mph - N/A   Clear
9:15 AM 15.8 °F 2.1 °F 12.2 °F 86% 30.07 in 10.0 mi West 12.7 mph - N/A   Clear
9:35 AM 19.4 °F 6.6 °F 14.0 °F 80% 30.07 in 10.0 mi West 12.7 mph - N/A   Clear
9:55 AM 24.8 °F 13.4 °F 14.0 °F 64% 30.06 in 7.0 mi WNW 12.7 mph - N/A   Clear
10:15 AM 28.4 °F 18.0 °F 12.2 °F 51% 30.06 in 10.0 mi WNW 12.7 mph - N/A   Clear
10:35 AM 30.2 °F 20.8 °F 12.2 °F 47% 30.06 in 10.0 mi WNW 11.5 mph 17.3 mph N/A   Clear
10:55 AM 30.2 °F 20.8 °F 14.0 °F 51% 30.05 in 10.0 mi WNW 11.5 mph - N/A   Clear
11:15 AM 32.0 °F 23.0 °F 14.0 °F 48% 30.05 in 10.0 mi West 11.5 mph - N/A   Clear
11:35 AM 33.8 °F 25.3 °F 15.8 °F 48% 30.05 in 10.0 mi West 11.5 mph - N/A   Clear
11:55 AM 33.8 °F 24.8 °F 17.6 °F 52% 30.03 in 10.0 mi West 12.7 mph - N/A   Clear
12:15 PM 33.8 °F 25.8 °F 14.0 °F 44% 30.03 in 10.0 mi West 10.4 mph - N/A   Clear
12:35 PM 33.8 °F 24.3 °F 14.0 °F 44% 30.02 in 10.0 mi West 13.8 mph - N/A   Clear
12:55 PM 35.6 °F 28.6 °F 14.0 °F 41% 30.01 in 10.0 mi WNW 9.2 mph 17.3 mph N/A   Clear
1:15 PM 35.6 °F 28.0 °F 19.4 °F 52% 30.01 in 10.0 mi West 10.4 mph - N/A   Clear
1:35 PM 37.4 °F 29.8 °F 19.4 °F 48% 30.00 in 10.0 mi WNW 11.5 mph 16.1 mph N/A   Clear
1:55 PM 37.4 °F 29.8 °F 17.6 °F 45% 29.99 in 10.0 mi WNW 11.5 mph 20.7 mph N/A   Clear
2:15 PM 37.4 °F 29.3 °F 17.6 °F 45% 29.99 in 10.0 mi WNW 12.7 mph 18.4 mph N/A   Clear
2:35 PM 37.4 °F 29.8 °F 17.6 °F 45% 29.99 in 10.0 mi WNW 11.5 mph - N/A   Clear
2:55 PM 35.6 °F 28.0 °F 14.0 °F 41% 29.99 in 10.0 mi WNW 10.4 mph - N/A   Clear
3:15 PM 37.4 °F 30.3 °F 17.6 °F 45% 29.98 in 10.0 mi WNW 10.4 mph - N/A   Clear
3:35 PM 37.4 °F 30.3 °F 19.4 °F 48% 29.98 in 10.0 mi WNW 10.4 mph - N/A   Clear
3:55 PM 35.6 °F 28.0 °F 19.4 °F 52% 29.98 in 10.0 mi West 10.4 mph - N/A   Clear
4:15 PM 33.8 °F 27.0 °F 21.2 °F 60% 29.97 in 10.0 mi West 8.1 mph - N/A   Clear
4:35 PM 33.8 °F 26.4 °F 23.0 °F 65% 29.97 in 10.0 mi West 9.2 mph - N/A   Clear
4:55 PM 33.8 °F 26.4 °F 23.0 °F 65% 29.96 in 10.0 mi West 9.2 mph - N/A   Clear
5:15 PM 26.6 °F 21.2 °F 17.6 °F 69% 29.96 in 10.0 mi West 4.6 mph - N/A   Clear
5:35 PM 23.0 °F - 17.6 °F 80% 29.96 in 10.0 mi Calm Calm - N/A   Clear
5:55 PM 23.0 °F 17.0 °F 19.4 °F 86% 29.97 in 10.0 mi West 4.6 mph - N/A   Clear
6:15 PM 19.4 °F 9.5 °F 14.0 °F 80% 29.97 in 10.0 mi WSW 8.1 mph - N/A   Clear
6:35 PM 17.6 °F 7.3 °F 12.2 °F 79% 29.97 in 10.0 mi West 8.1 mph - N/A   Clear
6:55 PM 14.0 °F 2.9 °F 10.4 °F 86% 29.97 in 10.0 mi West 8.1 mph - N/A   Clear
7:15 PM 14.0 °F 2.0 °F 10.4 °F 86% 29.98 in 10.0 mi West 9.2 mph - N/A   Clear
7:35 PM 14.0 °F 2.0 °F 10.4 °F 86% 29.98 in 10.0 mi West 9.2 mph - N/A   Clear
7:55 PM 17.6 °F 6.4 °F 12.2 °F 79% 29.98 in 10.0 mi West 9.2 mph - N/A   Clear
8:15 PM 19.4 °F 6.6 °F 14.0 °F 80% 29.98 in 10.0 mi West 12.7 mph - N/A   Clear
8:35 PM 17.6 °F 5.0 °F 12.2 °F 79% 29.99 in 10.0 mi West 11.5 mph - N/A   Clear
8:55 PM 19.4 °F 7.2 °F 15.8 °F 86% 29.99 in 10.0 mi WNW 11.5 mph - N/A   Clear
9:15 PM 21.2 °F 8.9 °F 14.0 °F 74% 29.99 in 10.0 mi WNW 12.7 mph - N/A   Clear
9:35 PM 19.4 °F 6.6 °F 14.0 °F 80% 29.99 in 10.0 mi West 12.7 mph - N/A   Clear
9:55 PM 14.0 °F 2.0 °F 10.4 °F 86% 29.98 in 10.0 mi West 9.2 mph - N/A   Clear
10:15 PM 15.8 °F 5.1 °F 12.2 °F 86% 29.98 in 10.0 mi West 8.1 mph - N/A   Clear
10:35 PM 15.8 °F 3.4 °F 12.2 °F 86% 29.98 in 7.0 mi WSW 10.4 mph - N/A   Clear
10:55 PM 12.2 °F -0.2 °F 8.6 °F 85% 29.98 in 10.0 mi West 9.2 mph - N/A   Clear
11:15 PM 14.0 °F 2.0 °F 10.4 °F 86% 29.97 in 10.0 mi West 9.2 mph - N/A   Clear
11:35 PM 14.0 °F 5.1 °F 10.4 °F 86% 29.97 in 10.0 mi West 5.8 mph - N/A   Clear
11:55 PM 12.2 °F -0.2 °F 8.6 °F 85% 29.96 in 10.0 mi West 9.2 mph - N/A   Clear